Regional Weather Roundup
Issued by NWS Cleveland, OH

Home | Current Version | Previous Version | Graphics & Text | Print | Product List | Glossary On
Versions: 1 2 3 4 5 6 7 8 9 10 11 12 13 14 15 16 17 18 19 20 21 22 23 24 25 26 27 28 29 30 31 32 33 34 35 36 37 38 39 40 41 42 43 44 45 46 47 48 49 50
000
ASUS41 KCLE 191610
RWRCLE
OHIO REGIONAL WEATHER ROUNDUP
NATIONAL WEATHER SERVICE WILMINGTON, OH
1200 PM EDT SAT APR 19 2014

NOTE: "FAIR" INDICATES FEW OR NO CLOUDS BELOW 12,000 FEET WITH NO
SIGNIFICANT WEATHER AND/OR OBSTRUCTIONS TO VISIBILITY.

OHZ001>008-015>018-024>027-034-035-043-044-191700-
   NORTHWEST OHIO

CITY           SKY/WX    TMP DP  RH WIND       PRES   REMARKS
DEFIANCE       SUNNY     52  35  52 E12       30.43F
FINDLAY        SUNNY     50  34  54 NE14      30.41S
TOLEDO EXPRESS SUNNY     50  30  46 E14       30.44S
TOLEDO METCALF SUNNY     47  33  58 E13G21    30.46R
LIMA           SUNNY     53  37  54 NE15      30.39S
$$

OHZ009>014-019>023-028>033-038-089-191700-
   NORTHEAST OHIO

CITY           SKY/WX    TMP DP  RH WIND       PRES   REMARKS
CLE-HOPKINS    SUNNY     49  34  56 N8        30.44F
CLE-LAKEFRONT  SUNNY     43  36  76 N13       30.42F
CUY CO. ARPT   SUNNY     50  28  43 E12       30.41F
LORAIN-ELYRIA  SUNNY     50  32  50 NE10      30.42F
ASHTABULA      SUNNY     49  26  41 N9        30.42F
AKRON-CANTON   MOSUNNY   56  28  34 E10       30.38F
WOOSTER        SUNNY     52  32  46 NE9       30.39F
MANSFIELD      SUNNY     52  34  50 NE14G22   30.38F
YOUNGSTOWN     MOSUNNY   51  25  36 NE7       30.39S
$$

OHZ042-051>053-060>062-070>072-077>081-191700-
  SOUTHWEST OHIO

CITY           SKY/WX    TMP DP  RH WIND       PRES   REMARKS
CINC-COVINGTON SUNNY     63  42  46 E12       30.31S
CINC-LUNKEN    SUNNY     63  46  54 NE6       30.32S
HAMILTON       SUNNY     63  45  51 E10       30.34S
DAYTON         SUNNY     58  42  55 E9        30.36S
WRIGHT-PAT AFB SUNNY     58  42  55 E8G17     30.35S
DAYTON GENERAL SUNNY     60  44  55 E13       30.33S
WILMINGTON     SUNNY     60  41  49 NE12      30.32S
$$

OHZ036-037-039>041-045>050-054>059-063>069-073>076-082>088-191700-
  CENTRAL AND SOUTHEAST OHIO

CITY           SKY/WX    TMP DP  RH WIND       PRES   REMARKS
COLUMBUS       SUNNY     60  40  47 E10       30.34F
OSU AIRPORT    SUNNY     57  39  51 E10       30.35F
BOLTON FIELD   SUNNY     57  43  58 NE9       30.34F
RICKENBACK AFB SUNNY     61  36  39 NE10G17   30.33F
NEWARK         SUNNY     58  37  45 NE9G18    30.34F
MARION         SUNNY     54  36  50 NE15      30.38F
LANCASTER      SUNNY     61  40  45 NE16      30.33F
ZANESVILLE     SUNNY     59  38  45 NE10      30.34F
NEW PHILLY     SUNNY     56  35  45 NE13      30.36F
$$



USA.gov is the U.S. government's official web portal to all federal, state and local government web resources and services.